RH
62 69 75 82 89 91 95 100 103 101 95 86 81 78 81 86 82 75 67 59 55 52 48 48 50 54 59 59 58 58 55 52 49 46 44 42 42 41 42 44 50 65
75 82 82 80 77 74 74 80 88 94 92 84 78 73 72 75 74 70 65 60 57 53 51 52 54 58 62 61 59 57 55 54 51 48 46 44 43 42 41 42 43 46
71 78 78 74 71 70 72 77 81 82 79 73 70 68 65 64 62 59 56 56 56 54 55 58 60 62 62 61 58 55 52 52 51 49 47 45 43 44 43 41 42 42
65 68 70 72 74 75 77 83 83 77 70 64 61 60 59 56 55 53 53 55 56 57 60 64 66 66 63 60 59 58 54 52 53 52 49 47 44 44 44 42 42 41
69 70 69 72 79 82 83 84 82 75 67 63 60 58 57 55 55 56 59 60 62 64 67 68 68 66 63 61 61 62 60 55 53 53 53 51 47 44 44 43 42 41
72 75 73 71 74 78 79 77 75 72 68 67 64 62 60 58 59 60 62 64 65 67 69 68 67 65 64 62 61 62 62 57 53 53 53 53 51 47 45 44 43 42
72 76 76 75 75 76 76 75 74 73 72 70 67 63 61 60 61 61 63 65 66 67 68 67 65 65 65 61 57 56 56 54 53 54 53 53 52 48 45 44 43 42
85 87 89 88 86 85 83 81 79 76 73 69 66 63 62 63 64 66 68 68 68 68 67 67 67 66 64 59 53 52 51 51 54 56 56 54 53 49 46 44 42 41
98 97 96 92 88 86 85 83 80 76 72 69 67 66 66 68 69 70 71 70 70 70 69 69 69 65 60 55 51 51 50 49 52 58 59 57 55 52 48 45 43 41
96 93 90 88 87 87 86 84 80 77 74 72 71 73 74 76 76 73 70 68 67 67 66 66 64 61 57 53 51 52 51 51 53 58 61 61 59 56 52 49 46 44
95 92 91 91 92 92 90 86 82 79 79 79 80 81 81 79 76 71 67 64 62 61 61 61 61 61 60 57 55 55 53 53 56 59 61 63 63 60 58 54 50 47
99 97 97 97 96 95 93 89 86 84 85 86 84 81 76 72 68 65 63 62 61 61 62 65 67 68 68 68 67 64 60 58 58 60 62 64 64 63 61 58 53 49
101 101 101 101 99 97 93 90 90 92 91 87 80 75 71 69 67 66 65 65 65 67 70 73 75 77 77 76 75 72 70 67 66 65 65 63 62 61 61 60 56 52
98 100 101 100 98 96 95 95 97 94 88 81 77 74 73 71 70 70 71 72 75 78 82 84 86 88 88 86 82 78 75 73 71 69 66 63 60 58 58 58 57 55
93 97 99 98 98 99 100 98 93 86 81 79 78 77 75 73 75 78 80 81 84 87 90 92 93 94 96 96 93 87 80 74 70 66 64 62 60 58 55 55 55 55
96 98 100 100 101 100 95 89 83 79 79 80 82 84 83 81 82 87 88 87 87 88 88 90 93 93 93 90 87 82 76 70 66 64 62 60 58 56 54 52 52 52
103 104 103 101 96 90 84 80 80 82 85 87 90 90 88 86 87 89 89 89 90 91 91 92 91 87 81 75 71 68 67 66 65 63 61 58 55 53 51 50 49 49
107 103 98 92 86 82 82 85 89 93 96 95 92 89 86 86 87 87 87 90 91 91 90 86 80 74 70 67 65 64 62 60 59 57 56 55 53 51 50 48 47 46
99 94 88 85 84 86 90 94 97 97 94 89 84 83 84 85 84 84 85 85 83 80 77 73 71 69 67 64 61 57 55 53 51 50 49 49 49 49 48 47 45 44
89 87 86 85 86 88 89 88 87 85 84 82 80 78 77 77 77 77 77 75 72 71 69 68 67 65 61 57 53 50 48 46 44 43 42 41 42 43 43 44 43 42
91 89 87 85 83 82 82 82 84 85 83 80 77 75 74 74 73 73 72 71 70 68 66 64 61 58 54 52 49 47 44 42 40 39 37 36 36 36 37 38 39 39
94 90 88 86 84 84 87 92 96 94 87 81 79 78 77 75 74 73 72 71 68 64 62 59 56 54 52 50 48 46 43 41 38 36 33 31 30 29 29 30 32 34
91 90 89 88 89 91 96 100 100 95 88 84 81 79 77 75 75 74 71 68 66 63 60 58 56 54 52 50 47 43 40 37 34 31 29 27 25 23 22 21 22 24
89 92 93 93 95 99 102 100 96 91 86 82 79 77 76 76 75 74 72 70 68 66 64 61 58 54 50 45 41 37 34 31 29 26 24 22 20 19 17 16 16 17
97 99 99 98 100 101 99 94 89 84 81 79 78 79 79 79 77 76 75 73 71 68 63 57 51 46 42 38 34 31 27 24 21 18 16 15 14 13 12 11 11 11
102 101 100 100 99 95 91 86 83 81 81 83 84 84 83 81 80 78 76 72 67 60 53 47 43 39 35 30 26 22 18 16 15 14 13 12 12 11 10 9 8 8
Wind_Speed
52 52 51 51 51 51 50 50 50 51 52 52 53 53 54 54 55 55 55 55 54 54 54 54 54 53 53 53 53 54 54 53 53 52 52 51 51 51 51 52 53 53
52 52 52 52 52 52 51 51 52 52 53 54 54 54 55 56 57 58 58 58 57 56 56 56 56 55 55 55 55 55 55 55 54 54 54 53 53 52 52 52 53 53
53 53 53 53 53 53 53 53 53 54 54 55 55 56 57 57 59 59 59 59 59 58 58 58 58 57 57 56 57 56 56 55 55 55 55 55 54 54 53 52 53 53
54 54 55 55 55 55 55 55 55 56 56 57 57 58 59 59 60 60 61 61 61 61 60 60 59 59 58 58 58 57 56 56 56 55 55 56 55 55 54 54 53 53
56 56 56 56 56 57 57 57 58 58 59 59 59 60 61 61 62 62 62 63 63 62 62 62 61 60 60 60 60 58 57 57 57 56 56 56 56 55 55 55 54 54
57 57 58 58 58 59 59 60 60 61 61 62 62 63 63 64 64 64 64 64 64 64 63 63 62 62 62 62 61 60 59 58 58 57 57 57 57 56 56 55 55 54
58 59 60 60 61 61 62 62 63 64 64 65 65 65 66 66 66 66 66 66 66 65 65 65 64 64 65 64 63 61 59 58 57 58 58 57 57 57 56 56 54 54
60 60 61 62 63 63 64 64 65 66 66 67 67 67 67 68 67 68 68 68 67 67 67 67 67 67 66 65 64 62 60 58 57 57 57 57 57 57 57 56 55 54
61 62 63 63 64 65 65 66 67 68 68 69 69 69 69 70 70 69 69 69 69 69 69 69 69 68 67 66 64 63 61 59 58 57 57 57 57 57 57 57 56 55
63 64 64 65 65 66 67 68 69 70 70 71 71 71 71 72 72 72 72 72 71 71 70 70 69 68 68 66 65 63 62 60 59 58 57 57 57 57 57 57 56 55
65 65 66 66 67 68 69 70 71 71 71 72 72 73 73 73 74 74 74 73 72 71 70 69 69 68 67 67 65 64 63 62 61 59 58 57 57 57 57 57 57 56
66 67 67 68 68 69 70 71 71 72 72 72 72 73 73 73 73 73 73 72 71 69 68 67 67 67 67 66 66 66 65 64 62 60 59 58 57 58 58 58 58 57
67 68 68 69 69 70 71 71 72 72 72 72 71 72 72 72 72 71 70 69 68 67 66 65 65 65 66 66 66 66 66 66 64 62 60 59 58 58 58 58 58 58
67 68 69 69 70 70 70 71 71 71 70 70 70 70 71 71 70 69 68 66 65 64 63 63 64 64 65 66 67 67 67 67 66 64 63 62 61 60 59 59 59 59
67 68 69 69 69 69 69 69 70 70 70 70 70 71 71 70 68 66 65 63 63 63 63 63 64 64 65 67 68 69 69 69 68 67 65 64 63 62 61 60 60 60
67 67 68 68 68 68 69 69 69 70 70 70 71 71 71 69 67 65 64 63 63 63 63 64 65 65 66 67 69 70 70 70 70 69 68 67 66 65 63 62 61 61
66 67 68 68 68 69 69 69 69 70 70 71 71 70 68 67 66 65 64 64 64 64 65 65 66 67 68 69 69 69 70 70 70 70 69 69 68 67 66 65 64 63
67 68 68 68 68 68 69 69 70 70 70 69 68 66 65 65 64 64 64 64 64 65 66 67 68 69 70 70 70 70 70 70 70 70 70 70 70 69 69 68 67 66
66 67 67 67 67 68 68 69 68 67 66 64 63 63 63 63 63 63 63 64 65 66 68 69 70 71 71 71 71 71 71 72 71 71 71 71 71 71 71 71 70 69
64 64 65 65 65 65 65 64 63 62 62 62 63 63 62 62 63 63 64 66 67 68 69 70 71 72 73 73 73 74 74 74 74 74 73 73 73 73 73 73 73 73
62 62 61 61 61 61 60 61 61 62 63 64 64 63 63 64 64 65 67 68 69 70 71 72 73 74 74 75 76 76 77 77 77 77 76 76 75 75 75 75 75 75
59 59 59 60 61 61 62 63 63 64 64 64 64 64 64 65 66 67 68 69 70 71 72 73 74 75 76 77 78 78 79 80 80 79 79 79 78 77 77 76 76 76
57 59 61 62 63 63 64 64 64 64 64 64 64 65 65 66 67 69 70 71 72 73 74 75 76 77 78 79 80 80 81 81 82 81 81 81 80 79 78 76 75 75
60 62 63 63 63 64 64 64 64 64 64 65 65 66 66 68 69 70 72 73 74 75 76 77 78 79 80 81 81 82 82 82 81 81 80 80 79 79 78 76 74 73
63 64 63 63 62 62 62 63 63 64 64 65 66 67 68 69 71 72 73 75 76 77 78 79 80 81 81 82 81 81 81 80 79 78 77 76 76 76 75 74 72 70
64 63 62 61 61 62 62 63 63 64 65 66 67 69 70 71 72 73 75 76 77 79 80 81 81 81 81 80 79 78 77 76 75 73 73 72 72 71 71 71 69 66
Wind_Direction
279 279 279 279 280 281 281 282 283 284 284 285 286 287 287 287 287 288 289 289 289 290 291 292 292 292 292 292 292 291 290 288 285 283 281 280 278 277 276 274 273 271
277 277 277 278 278 279 279 280 280 281 282 283 284 285 286 287 287 288 288 289 290 290 291 292 292 292 292 292 292 291 289 287 284 282 281 279 278 277 276 275 274 272
275 276 277 277 278 278 278 279 279 279 280 281 282 283 284 285 286 287 288 288 289 289 291 291 292 292 291 291 292 291 290 287 284 281 279 278 277 276 276 275 275 274
275 276 277 278 278 278 278 278 278 279 280 281 282 283 283 284 285 286 287 288 289 289 290 291 291 291 290 291 291 291 290 289 286 282 279 277 276 275 274 274 274 274
276 276 277 278 278 279 279 279 279 280 281 282 282 283 283 284 285 286 287 288 289 289 289 290 290 290 290 291 291 290 289 289 286 283 280 278 276 274 273 273 273 273
276 277 278 278 279 280 280 280 281 281 282 282 283 283 284 284 285 286 287 287 288 288 288 288 288 288 289 290 290 288 288 287 285 282 279 277 276 274 272 272 272 272
277 278 279 279 280 280 281 281 282 282 283 283 284 284 285 285 286 286 287 287 287 287 287 288 288 289 289 289 288 287 286 285 283 280 278 277 275 274 272 271 270 271
278 279 280 280 281 281 282 283 283 284 284 284 285 286 286 286 286 287 287 287 287 288 288 288 288 289 289 289 288 286 285 283 281 279 278 277 275 274 272 271 270 269
279 280 280 281 282 283 283 284 284 284 285 286 286 286 287 287 287 286 286 286 287 287 288 288 288 288 288 287 287 286 285 284 282 280 278 277 276 274 273 271 270 269
279 279 280 281 282 283 283 283 284 285 285 286 287 287 287 288 288 288 287 287 287 287 287 287 287 287 287 287 286 286 285 285 284 282 280 279 277 275 274 272 271 270
278 279 280 281 281 282 282 283 284 285 286 287 287 288 288 288 289 289 289 288 288 288 287 287 287 287 287 287 287 286 285 285 285 283 281 280 279 277 275 273 271 270
278 279 280 280 281 282 283 284 285 286 287 288 289 289 289 289 289 289 289 288 288 287 286 286 286 286 286 286 286 286 286 285 285 283 281 280 279 278 276 274 272 271
279 279 280 281 281 282 283 284 286 287 288 289 289 290 290 290 290 289 288 287 286 286 285 284 284 285 285 285 285 285 285 285 285 283 282 280 279 277 276 275 273 271
279 279 280 281 281 282 284 285 286 287 288 289 290 290 290 291 290 289 287 286 285 284 284 283 283 284 284 284 284 285 284 284 284 283 282 281 279 277 276 274 272 271
279 279 280 281 282 283 284 285 286 287 288 289 290 291 291 291 290 288 286 285 284 283 283 283 283 283 283 284 284 284 284 284 283 283 282 280 279 278 275 273 271 270
280 280 281 282 282 283 284 285 286 287 288 289 291 292 292 291 290 288 286 285 284 284 284 284 284 284 283 283 283 283 283 283 283 282 281 280 278 277 275 273 271 269
280 281 281 282 283 284 284 285 287 288 289 290 291 291 290 289 288 287 286 286 286 286 286 285 285 284 284 283 282 282 281 281 281 281 280 279 278 277 275 273 271 269
281 281 282 283 283 284 286 287 288 289 290 290 290 290 289 289 288 287 287 287 287 287 286 285 285 284 283 283 282 281 281 280 279 279 278 278 277 276 275 273 271 269
281 281 282 283 285 287 288 288 289 289 289 290 290 290 289 289 288 288 288 288 287 286 286 285 285 284 284 283 282 282 281 280 279 278 277 276 275 275 274 273 271 270
282 283 285 286 288 288 288 288 288 289 289 290 290 290 289 289 289 289 288 288 287 286 286 286 285 285 285 284 284 283 282 281 279 278 277 275 274 273 273 272 271 270
285 286 287 288 288 288 288 289 290 290 290 290 291 291 290 290 289 289 289 288 288 287 287 287 287 287 286 286 285 285 284 283 281 280 279 277 275 273 272 271 270 269
286 286 287 289 289 289 290 290 291 290 291 291 291 291 291 290 290 289 289 289 289 288 288 288 288 288 288 287 287 286 286 285 284 283 281 280 278 275 273 271 269 268
286 287 289 291 291 291 291 291 291 291 291 291 290 290 290 290 290 290 291 291 291 291 291 291 290 290 290 290 289 289 288 287 286 285 284 282 281 278 276 273 270 267
289 290 292 292 291 291 291 291 290 290 290 290 290 291 291 292 292 292 293 293 293 293 293 292 292 292 292 292 291 291 290 289 288 287 286 285 283 281 278 276 272 269
291 291 291 291 290 290 290 289 289 289 290 291 292 293 293 294 294 294 294 294 294 294 294 294 294 294 294 293 293 292 291 291 290 289 288 286 285 283 281 279 276 272
289 289 289 288 288 288 288 289 290 291 292 293 294 294 294 295 295 295 295 295 295 295 295 295 295 295 295 295 294 294 293 292 292 291 290 289 287 285 283 282 279 276